Regional Weather Roundup
Issued by NWS

Home | Current Version | Previous Version | Text Only | Print | Product List | Glossary Off
Versions: 1 2 3 4 5 6 7 8 9 10 11 12 13 14 15 16 17 18 19 20 21 22 23 24 25 26 27 28 29 30 31 32 33 34 35 36 37 38 39 40 41 42 43 44 45 46 47 48 49 50

000
ASUS43 KLOT 011110
RWRIL

ILLINOIS REGIONAL WEATHER ROUNDUP
NATIONAL WEATHER SERVICE CHICAGO/ROMEOVILLE IL
600 AM CDT WED OCT 01 2014

NOTE: "FAIR" INDICATES FEW OR NO CLOUDS BELOW 12,000 FEET WITH NO
SIGNIFICANT WEATHER AND/OR OBSTRUCTIONS TO VISIBILITY.

* THESE STATIONS ARE NOT UNDER NWS QUALITY CONTROL. THEY ALSO MAY NOT
  REPORT WEATHER SUCH AS PRECIPITATION OR FOG.

ILZ001-002-007-009-015-016-024-011200-
NORTHWEST ILLINOIS

CITY           SKY/WX    TMP DP  RH WIND       PRES   REMARKS
MOLINE         NOT AVBL
SAVANNA*       CLOUDY    51  47  86 SE8       29.96S
$$

ILZ003-004-008-010-011-017-018-011200-
NORTH CENTRAL ILLINOIS

CITY           SKY/WX    TMP DP  RH WIND       PRES   REMARKS
ROCKFORD       PTCLDY    49  46  90 SE5       30.01S
FREEPORT*      CLEAR     44  44  97 E5        29.99S FOG
ROCHELLE*      CLEAR     46  45  95 E7        29.99F
DE KALB*       CLEAR     46  44  93 E5        30.00S
PERU*          MOCLDY    51  46  84 E8        29.98F
$$

ILZ005-006-012>014-019>023-011200-
NORTHEAST ILLINOIS

CITY           SKY/WX    TMP DP  RH WIND       PRES   REMARKS
CHICAGO-OHARE  PTCLDY    49  44  83 S6        30.00S
CHICAGO-MIDWAY PTCLDY    53  47  79 SE5       30.01R
AURORA         CLEAR     48  44  86 E6        30.00S
LANSING*       CLEAR     43  42  97 CALM      30.01R FOG
JOLIET*        CLEAR     46  44  91 E5        30.00S
WAUKEGAN       NOT AVBL
DUPAGE AIRPORT CLEAR     49  44  83 E6        29.99S
KANKAKEE*      CLEAR     45  44  97 E6        30.01R
WHEELING       CLOUDY    56  47  71 S7        30.02R
MORRIS*        CLEAR     47  46  97 E3        29.99S
ROMEOVILLE*    CLEAR     47  46  96 E7        30.00S
NORTHERLY ISL    N/A     56  47  71 SE12        N/A
$$

LMZ740>746-011200-
SOUTHERN LAKE MICHIGAN

STATION/POSITION SKY/WX   TEMP    WIND        PRES    VSBY  WAVE
                          AIR SEA DIR/SP/G                  HT/PER
                          (F)     (DEG/KT/KT) (MB)    (MI)  (FT/S)
SOUTHERN BUOY              57 62  160/ 10/ 12 1016.4F         2/ 5
WAUKEGAN HARBOR            56     160/ 12/ 16   N/A
HARRISON CRIB              56     140/ 15/ 18   N/A
BURNHAM HARBOR             56     150/  9/ 13   N/A
CALUMET HARBOR             56     110/  7/ 12 1014.9R
MICHIGAN CITY              53      80/  4/  5   N/A
MICHIGAN CITY 6N           56 64  140/  6/ 10   N/A           2/ 2
ST. JOSEPH                 55 62  100/  8/ 12   N/A           1/ 2
$$

ILZ025>027-034>036-040-047-049-050-058-095>099-011200-
WEST-CENTRAL ILLINOIS

CITY           SKY/WX    TMP DP  RH WIND       PRES   REMARKS
QUINCY         CLEAR     55  51  86 SE13      29.88S
GALESBURG*     PTCLDY    50  47  88 E7        29.92F
MACOMB*        PTCLDY    50  48  93 SE7       29.94S
JACKSONVILLE*  CLEAR     53  51  92 E6        29.93S FOG
PITTSFIELD*    CLEAR     55  52  90 E3        29.92S
$$

ILZ028>032-037-038-041>044-048-051>054-059>061-011200-
CENTRAL ILLINOIS

CITY           SKY/WX    TMP DP  RH WIND       PRES   REMARKS
PONTIAC        CLEAR     48  46  93 CALM      29.98S
BLOOMINGTON    CLEAR     51  48  89 SE9         N/A
DECATUR        CLEAR     50  48  93 E5        29.96S
PEORIA         PTCLDY    53  46  77 E7        29.95F
LACON*         PTCLDY    48  45  88 CALM      29.96F
LINCOLN*       MOCLDY    53  49  86 E3        29.94S
SPRINGFIELD    CLEAR     53  49  86 E6        29.94S
TAYLORVILLE    CLEAR     52  48  87 E6        29.94S
$$

ILZ033-039-045-046-055>057-062-063-011200-
EAST-CENTRAL ILLINOIS

CITY           SKY/WX    TMP DP  RH WIND       PRES   REMARKS
DANVILLE*      CLEAR     47  46  96 E3        29.97R
RANTOUL*       CLEAR     50  46  87 E6        29.98F
MATTOON        PTCLDY    52  49  89 SE6       29.95S
PARIS*         CLEAR     49  49  99 CALM      29.99S
$$

ILZ079-100>102-011200-
SOUTHWEST ILLINOIS

CITY           SKY/WX    TMP DP  RH WIND       PRES   REMARKS
ALTON          CLEAR     56  54  94 E3        29.92F
BELLEVILLE     CLEAR     58  57  99 CALM      29.91S
CAHOKIA*       CLEAR     61  59  93 SE5       29.91S
SPARTA*        PTCLDY    61  59  93 SE6       29.92S FOG
$$

ILZ064>066-069>071-074>076-080>082-084>086-088>090-092>094-011200-
SOUTH-CENTRAL ILLINOIS

CITY           SKY/WX    TMP DP  RH WIND       PRES   REMARKS
CARBONDALE     CLEAR     53  52  96 CALM      29.92S
CAIRO*         FOG       60  58  93 CALM      29.91S VSB 1/4
EFFINGHAM*     RAIN      54  50  87 E5        29.95S
MARION         PTCLDY    63  61  94 SE3       29.92S
CENTRALIA*     CLEAR     56  54  92 E3        29.93S FOG
SALEM*         CLEAR     58  56  94 E3        29.94R
METROPOLIS*      N/A     53  53 100 CALM      29.92R FOG
$$

ILZ067-068-072-073-078-083-087-091-011200-
SOUTHEAST ILLINOIS

CITY           SKY/WX    TMP DP  RH WIND       PRES   REMARKS
LAWRENCEVILLE  CLEAR     54  53  97 NE5       29.97R
FLORA*         CLEAR     54  53  95 NE5       29.95R
FAIRFIELD*     MOCLDY    57  57 100 N3        29.94R FOG
HARRISBURG*    MOCLDY    59  59 100 CALM      29.94R FOG
ROBINSON*      CLEAR     54  52  95 E3        29.97S
CARMI*           N/A     56  55  99 CALM      29.93S FOG
$$

ABBREVIATIONS USED IN REMARKS
   TC - TEMPERATURE IN CELSIUS
  WCI - WIND CHILL INDEX
   HX - HEAT INDEX
  VSB - VISIBILITY
$$



USA.gov is the U.S. government's official web portal to all federal, state and local government web resources and services.